sat.trackr.live / text

‹ back to catalog

STARLINK-32460

NORAD 61914 · 2024-207C

PAYLOAD ACTIVE UNKNOWN

§ Identity

Operator
Country
US
Launch date
2024-11-11
Launch site
AFETR
Launch vehicle
Mass (kg)
RCS (m²)

Purposes: comms

External: N2YO · Heavens-Above · Gunter

§ Orbital elements

Epoch: 2026-09-21T16:43:04.310688Z

Period
94.27 min
Inclination
43.0017°
Eccentricity
0.0001460
Mean motion
15.27582875 rev/d
Perigee alt
482.0 km
Apogee alt
484.0 km
Semi-major
6,861.2 km
B*
3.6955e-4
RAAN
254.3826°
Arg perigee
269.3809°
Mean anomaly
90.6875°
Rev number
10,470

§ Raw data

STARLINK-324601 61914U 24207C   26264.69657767  .00009922  00000+0  36955-3 0  99912 61914  43.0017 254.3826 0001460 269.3809  90.6875 15.27582875104703

JSON: /api/v1/satellites/61914 · /tle

For live sub-satellite position, see the globe view (requires WebGL).

§ Visibility from observer

Set your observer location to see the next 7 days of passes ≥ 10°. The values pass through the URL so the page stays shareable.

No JS? Fill the form by hand. The geolocation button needs JavaScript.